EW6167 Weather Reports


time (UTC)temp
C
wind
direction
speed
KPH
gust
KPH
rain 1hr
cm
rain 24hr
cm
rain mn
cm
humidity
%
barometer
mb
20260505205037 7 317 27.4 0.0 0.00 0.00 0.00 38 1012.0
20260505204600 7 321 29.0 0.0 0.00 0.00 0.00 39 1011.9
20260505204012 7 312 29.0 0.0 0.00 0.00 0.00 37 1011.9
20260505203530 7 317 27.4 0.0 0.00 0.00 0.00 41 1011.8
20260505203052 7 301 27.4 0.0 0.00 0.00 0.00 39 1012.0
20260505202515 7 333 29.0 0.0 0.00 0.00 0.00 42 1012.3
20260505202032 6 323 33.8 0.0 0.00 0.00 0.00 39 1012.2
20260505201552 7 323 32.2 0.0 0.00 0.00 0.00 39 1012.2
20260505201004 7 315 30.6 0.0 0.00 0.00 0.00 40 1012.3
20260505200521 6 315 29.0 0.0 0.00 0.00 0.00 41 1012.2
20260505200037 6 306 30.6 0.0 0.00 0.00 0.00 42 1012.2
20260505195554 6 303 30.6 0.0 0.00 0.00 0.00 41 1012.3
20260505195009 6 321 30.6 0.0 0.00 0.00 0.00 40 1012.2
20260505194529 6 317 30.6 0.0 0.00 0.00 0.00 40 1012.2
20260505194048 6 312 30.6 0.0 0.00 0.00 0.00 39 1012.1
20260505193502 6 329 30.6 0.0 0.00 0.00 0.00 41 1012.0
20260505193031 7 319 30.6 0.0 0.00 0.00 0.00 40 1012.0
20260505192544 6 315 32.2 0.0 0.00 0.00 0.00 41 1012.0
20260505192104 6 351 33.8 0.0 0.00 0.00 0.00 41 1012.0
20260505191522 6 321 33.8 0.0 0.00 0.00 0.00 41 1011.8
20260505191037 6 332 33.8 0.0 0.00 0.00 0.00 41 1011.8
20260505190603 7 322 33.8 0.0 0.00 0.00 0.00 42 1011.7
20260505190016 7 331 33.8 0.0 0.00 0.00 0.00 40 1011.8
20260505185535 7 336 30.6 0.0 0.00 0.00 0.00 40 1011.7
20260505185100 7 325 27.4 0.0 0.00 0.00 0.00 39 1011.6
20260505184515 7 343 27.4 0.0 0.00 0.00 0.00 38 1011.5
20260505184041 7 344 29.0 0.0 0.00 0.00 0.00 38 1011.5
20260505183604 7 329 27.4 0.0 0.00 0.00 0.00 38 1011.6
20260505183024 8 327 27.4 0.0 0.00 0.00 0.00 38 1011.5
20260505182541 7 355 27.4 0.0 0.00 0.00 0.00 38 1011.5
20260505182101 8 338 27.4 0.0 0.00 0.00 0.00 38 1011.5
20260505181516 7 323 29.0 0.0 0.00 0.00 0.00 38 1011.5
20260505181036 8 341 29.0 0.0 0.00 0.00 0.00 36 1011.4
20260505180556 7 355 27.4 0.0 0.00 0.00 0.00 37 1011.4
20260505180008 7 306 29.0 0.0 0.00 0.00 0.00 36 1011.4
20260505175527 7 321 25.7 0.0 0.00 0.00 0.00 38 1011.3
20260505175044 7 323 24.1 0.0 0.00 0.00 0.00 39 1011.3
20260505174559 7 332 22.5 0.0 0.00 0.00 0.00 39 1011.5
20260505174014 7 328 24.1 0.0 0.00 0.00 0.00 38 1011.7
20260505173531 7 338 22.5 0.0 0.00 0.00 0.00 39 1011.7
20260505173048 7 325 20.9 0.0 0.00 0.00 0.00 40 1011.7
20260505172507 7 327 20.9 0.0 0.00 0.00 0.00 40 1011.6
20260505172018 7 314 19.3 0.0 0.00 0.00 0.00 41 1011.7
20260505171536 6 350 17.7 0.0 0.00 0.00 0.00 42 1011.8
20260505171055 6 312 17.7 0.0 0.00 0.00 0.00 42 1011.8
20260505170512 6 24 16.1 0.0 0.00 0.00 0.00 42 1011.9
20260505170030 6 355 16.1 0.0 0.00 0.00 0.00 44 1012.0
20260505165543 6 355 17.7 0.0 0.00 0.00 0.00 43 1012.1
20260505165105 5 9 17.7 0.0 0.00 0.00 0.00 44 1012.0
20260505164518 5 355 20.9 0.0 0.00 0.00 0.00 45 1012.0
20260505164036 6 30 20.9 0.0 0.00 0.00 0.00 45 1012.0
20260505163554 5 5 19.3 0.0 0.00 0.00 0.00 44 1012.0
20260505163016 5 360 19.3 0.0 0.00 0.00 0.00 45 1012.0
20260505162534 6 355 17.7 0.0 0.00 0.00 0.00 45 1012.0
20260505162053 5 333 17.7 0.0 0.00 0.00 0.00 45 1011.9
20260505161510 5 5 16.1 0.0 0.00 0.00 0.00 48 1012.1
20260505161026 5 355 17.7 0.0 0.00 0.00 0.00 49 1012.0
20260505160546 5 355 17.7 0.0 0.00 0.00 0.00 49 1012.1
20260505153009 3 346 17.7 0.0 0.00 0.00 0.00 55 1012.2
20260505152535 3 333 17.7 0.0 0.00 0.00 0.00 54 1012.2
20260505152055 3 329 16.1 0.0 0.00 0.00 0.00 56 1012.3
20260505151510 3 337 17.7 0.0 0.00 0.00 0.00 55 1012.3
20260505151030 3 344 19.3 0.0 0.00 0.00 0.00 55 1012.4
20260505150551 3 334 19.3 0.0 0.00 0.00 0.00 55 1012.5
20260505140535 2 355 6.4 0.0 0.00 0.00 0.00 60 1012.5
20260505125010 -1 5 3.2 0.0 0.00 0.00 0.00 73 1012.1
20260505124541 -1 5 1.6 0.0 0.00 0.00 0.00 73 1012.0
20260505124049 -1 5 1.6 0.0 0.00 0.00 0.00 73 1012.0
20260505123505 -1 5 1.6 0.0 0.00 0.00 0.00 73 1012.0
20260505123023 -2 5 1.6 0.0 0.00 0.00 0.00 74 1012.0
20260505122544 -2 5 1.6 0.0 0.00 0.00 0.00 74 1012.0
20260505122059 -2 5 1.6 0.0 0.00 0.00 0.00 75 1012.0
20260505121517 -2 5 1.6 0.0 0.00 0.00 0.00 76 1011.9
20260505121044 -2 5 3.2 0.0 0.00 0.00 0.00 75 1011.8
20260505120604 -2 5 1.6 0.0 0.00 0.00 0.00 76 1011.7
20260505120016 -2 5 3.2 0.0 0.00 0.00 0.00 75 1011.7
20260505115532 -2 5 3.2 0.0 0.00 0.00 0.00 75 1011.5
20260505115052 -2 5 3.2 0.0 0.00 0.00 0.00 73 1011.5
20260505114504 -2 5 3.2 0.0 0.00 0.00 0.00 72 1011.4
20260505114023 -1 5 3.2 0.0 0.00 0.00 0.00 72 1011.5
20260505113548 -1 5 3.2 0.0 0.00 0.00 0.00 73 1011.5
20260505113007 -1 5 1.6 0.0 0.00 0.00 0.00 73 1011.5
20260505112528 -1 5 1.6 0.0 0.00 0.00 0.00 74 1011.6
20260505112043 -1 5 3.2 0.0 0.00 0.00 0.00 74 1011.6
20260505111506 -1 5 3.2 0.0 0.00 0.00 0.00 74 1011.7
20260505111031 -1 5 3.2 0.0 0.00 0.00 0.00 74 1011.7
20260505110548 -1 5 3.2 0.0 0.00 0.00 0.00 72 1011.6
20260505102022 0 5 1.6 0.0 0.00 0.00 0.00 70 1011.8
20260505101543 0 5 1.6 0.0 0.00 0.00 0.00 69 1011.9
20260505101100 0 5 1.6 0.0 0.00 0.00 0.00 69 1011.9
20260505100522 0 5 1.6 0.0 0.00 0.00 0.00 68 1012.0
20260505100038 0 5 3.2 0.0 0.00 0.00 0.00 68 1012.0
20260505095556 0 5 4.8 0.0 0.00 0.00 0.00 69 1012.1
20260505095013 0 5 4.8 0.0 0.00 0.00 0.00 70 1012.1
20260505094534 0 5 4.8 0.0 0.00 0.00 0.00 70 1012.1
20260505094050 0 5 4.8 0.0 0.00 0.00 0.00 71 1012.2
20260505093510 0 5 4.8 0.0 0.00 0.00 0.00 70 1012.1
20260505093031 0 5 4.8 0.0 0.00 0.00 0.00 69 1012.2
20260505092548 0 5 4.8 0.0 0.00 0.00 0.00 69 1012.2
20260505092003 0 5 4.8 0.0 0.00 0.00 0.00 68 1012.2
20260505091517 0 5 4.8 0.0 0.00 0.00 0.00 67 1012.2
20260505091034 0 5 4.8 0.0 0.00 0.00 0.00 66 1012.1
20260505090549 0 5 6.4 0.0 0.00 0.00 0.00 65 1012.2
20260505090106 1 5 6.4 0.0 0.00 0.00 0.00 64 1012.2
20260505085518 1 360 8.0 0.0 0.00 0.00 0.00 64 1012.2
20260505085036 1 17 8.0 0.0 0.00 0.00 0.00 64 1012.2
20260505084553 1 13 8.0 0.0 0.00 0.00 0.00 64 1012.1
20260505084004 1 13 8.0 0.0 0.00 0.00 0.00 63 1012.1
20260505083518 1 12 9.7 0.0 0.00 0.00 0.00 62 1012.1
20260505083037 2 9 12.9 0.0 0.00 0.00 0.00 60 1012.1
20260505082550 2 355 16.1 0.0 0.00 0.00 0.00 58 1012.1
20260505082009 3 344 19.3 0.0 0.00 0.00 0.00 57 1012.1
20260505081526 3 340 22.5 0.0 0.00 0.00 0.00 57 1012.1
20260505081045 3 338 22.5 0.0 0.00 0.00 0.00 57 1012.1
20260505080604 3 336 24.1 0.0 0.00 0.00 0.00 57 1012.1
20260505080010 3 336 25.7 0.0 0.00 0.00 0.00 56 1012.2
20260505075528 3 338 25.7 0.0 0.00 0.00 0.00 56 1012.2
20260505075045 3 343 25.7 0.0 0.00 0.00 0.00 57 1012.2
20260505074601 3 327 25.7 0.0 0.00 0.00 0.00 57 1012.2
20260505074015 3 339 25.7 0.0 0.00 0.00 0.00 57 1012.1
20260505073534 3 331 24.1 0.0 0.00 0.00 0.00 58 1012.1
20260505073049 3 336 22.5 0.0 0.00 0.00 0.00 58 1012.3
20260505072503 3 326 22.5 0.0 0.00 0.00 0.00 59 1012.3
20260505072021 3 334 22.5 0.0 0.00 0.00 0.00 59 1012.3
20260505071537 3 331 22.5 0.0 0.00 0.00 0.00 59 1012.1
20260505071058 3 342 20.9 0.0 0.00 0.00 0.00 59 1012.2
20260505070519 3 329 20.9 0.0 0.00 0.00 0.00 60 1012.1
20260505070043 3 337 20.9 0.0 0.00 0.00 0.00 60 1012.2
20260505065550 3 341 24.1 0.0 0.00 0.00 0.00 60 1012.1
20260505065006 3 323 25.7 0.0 0.00 0.00 0.00 60 1011.8
20260505064524 3 334 27.4 0.0 0.00 0.00 0.00 60 1011.9
20260505064041 3 314 25.7 0.0 0.00 0.00 0.00 61 1011.8
20260505063557 3 325 24.1 0.0 0.00 0.00 0.00 61 1011.8
20260505063013 3 332 22.5 0.0 0.00 0.00 0.00 61 1011.8
20260505062529 3 315 22.5 0.0 0.00 0.00 0.00 61 1011.7
20260505062049 3 306 24.1 0.0 0.00 0.00 0.00 62 1011.8
20260505061603 3 318 25.7 0.0 0.00 0.00 0.00 62 1011.7
20260505061014 3 322 27.4 0.0 0.00 0.00 0.00 61 1011.7
20260505060529 3 315 25.7 0.0 0.00 0.00 0.00 61 1011.6
20260505060046 3 331 25.7 0.0 0.00 0.00 0.00 61 1011.5
20260505055600 3 327 27.4 0.0 0.00 0.00 0.00 61 1011.6
20260505055010 4 320 27.4 0.0 0.00 0.00 0.00 61 1011.3
20260505054528 4 327 25.7 0.0 0.00 0.00 0.00 62 1011.4
20260505054044 4 325 27.4 0.0 0.00 0.00 0.00 62 1011.4
20260505053559 4 317 29.0 0.0 0.00 0.00 0.00 62 1011.3
20260505053009 4 329 30.6 0.0 0.00 0.00 0.00 62 1011.3
20260505052524 4 327 30.6 0.0 0.00 0.00 0.00 62 1011.2
20260505052042 5 336 30.6 0.0 0.00 0.00 0.00 63 1011.3
20260505051559 5 329 32.2 0.0 0.00 0.00 0.00 63 1011.3
20260505051015 5 309 30.6 0.0 0.00 0.00 0.00 63 1011.2
20260505050529 5 323 30.6 0.0 0.00 0.00 0.00 62 1011.4
20260505041513 5 329 29.0 0.0 0.00 0.00 0.00 59 1010.8
20260505041026 5 325 29.0 0.0 0.00 0.00 0.00 59 1010.6
20260505040545 5 323 29.0 0.0 0.00 0.00 0.00 58 1010.7
20260505040105 6 327 30.6 0.0 0.00 0.00 0.00 58 1010.6
20260505035510 6 330 29.0 0.0 0.00 0.00 0.00 57 1010.4
20260505035029 6 329 29.0 0.0 0.00 0.00 0.00 57 1010.3
20260505034554 6 328 29.0 0.0 0.00 0.00 0.00 57 1010.3
20260505034101 6 327 30.6 0.0 0.00 0.00 0.00 56 1010.1
20260505033521 6 315 30.6 0.0 0.00 0.00 0.00 56 1010.0
20260505033028 6 320 29.0 0.0 0.00 0.00 0.00 55 1009.8
20260505032545 6 321 29.0 0.0 0.00 0.00 0.00 55 1009.7
20260505032002 6 333 27.4 0.0 0.00 0.00 0.00 54 1009.7
20260505031518 6 326 27.4 0.0 0.00 0.00 0.00 54 1009.7
20260505031037 6 320 29.0 0.0 0.00 0.00 0.00 54 1009.6
20260505030547 6 304 29.0 0.0 0.00 0.00 0.00 54 1009.6
20260505030104 6 313 27.4 0.0 0.00 0.00 0.00 54 1009.3
20260505025518 6 319 27.4 0.0 0.00 0.00 0.00 54 1009.3
20260505025033 6 317 29.0 0.0 0.00 0.00 0.00 54 1009.2
20260505024551 6 315 32.2 0.0 0.00 0.00 0.00 54 1008.9
20260505024003 6 316 33.8 0.0 0.00 0.00 0.00 54 1008.9
20260505023522 7 328 32.2 0.0 0.00 0.00 0.00 54 1008.8
20260505023046 7 311 30.6 0.0 0.00 0.00 0.00 54 1008.8
20260505022557 7 315 32.2 0.0 0.00 0.00 0.00 54 1008.7
20260505022010 7 313 32.2 0.0 0.00 0.00 0.00 53 1008.7
20260505021524 7 301 32.2 0.0 0.00 0.00 0.00 53 1008.7
20260505021042 7 323 30.6 0.0 0.00 0.00 0.00 52 1008.6
20260505020558 7 317 29.0 0.0 0.00 0.00 0.00 52 1008.7
20260505020014 7 311 29.0 0.0 0.00 0.00 0.00 52 1008.6
20260505015531 7 309 30.6 0.0 0.00 0.00 0.00 52 1008.5
20260505015052 7 329 33.8 0.0 0.00 0.00 0.00 52 1008.5
20260505014507 7 336 33.8 0.0 0.00 0.00 0.00 52 1008.2
20260505014022 7 319 35.4 0.0 0.00 0.00 0.00 52 1008.0
20260505013538 7 331 37.0 0.0 0.00 0.00 0.00 52 1007.9
20260505013055 7 320 38.6 0.0 0.00 0.00 0.00 51 1007.8
20260505012505 8 305 40.2 0.0 0.00 0.00 0.00 50 1007.9
20260505012026 8 321 41.8 0.0 0.00 0.00 0.00 50 1007.7
20260505011603 8 309 40.2 0.0 0.00 0.00 0.00 49 1007.4
20260505011058 8 330 38.6 0.0 0.00 0.00 0.00 49 1007.6
20260505010505 8 316 38.6 0.0 0.00 0.00 0.00 50 1007.5
20260505010021 8 323 37.0 0.0 0.00 0.00 0.00 50 1007.5
20260505005540 8 325 37.0 0.0 0.00 0.00 0.00 50 1007.3
20260505005100 9 330 37.0 0.0 0.00 0.00 0.00 48 1007.4
20260505004514 9 320 37.0 0.0 0.00 0.00 0.00 47 1007.6
20260505004033 10 327 37.0 0.0 0.00 0.00 0.00 47 1007.5
20260505003548 10 315 38.6 0.0 0.00 0.00 0.00 46 1007.1
20260505003104 10 331 37.0 0.0 0.00 0.00 0.00 46 1007.3
20260505002522 10 323 35.4 0.0 0.00 0.00 0.00 45 1007.2
20260505002036 10 337 33.8 0.0 0.00 0.00 0.00 46 1007.1
20260505001605 10 321 33.8 0.0 0.00 0.00 0.00 46 1007.1
20260505001105 11 325 32.2 0.0 0.00 0.00 0.00 46 1007.0
20260505000516 11 327 30.6 0.0 0.00 0.00 0.00 45 1007.1
20260505000037 11 327 29.0 0.0 0.00 0.00 0.00 46 1007.1
20260504235545 11 338 30.6 0.0 0.00 0.00 0.00 45 1007.0
20260504235007 11 336 30.6 0.0 0.00 0.00 0.00 45 1006.9
20260504234520 11 336 30.6 0.0 0.00 0.00 0.00 45 1006.9
20260504234036 11 328 30.6 0.0 0.00 0.00 0.00 45 1006.8
20260504233554 11 325 30.6 0.0 0.00 0.00 0.00 45 1006.7
20260504233012 11 329 29.0 0.0 0.00 0.00 0.00 45 1006.7
20260504232525 11 337 30.6 0.0 0.00 0.00 0.00 45 1006.7
20260504232044 11 349 32.2 0.0 0.00 0.00 0.00 45 1006.6
20260504231502 11 330 32.2 0.0 0.00 0.00 0.00 45 1006.5
20260504231019 11 338 30.6 0.0 0.00 0.00 0.00 44 1006.7
20260504230533 11 331 30.6 0.0 0.00 0.00 0.00 46 1006.5
20260504230051 11 323 30.6 0.0 0.00 0.00 0.00 44 1006.5
20260504225502 12 337 27.4 0.0 0.00 0.00 0.00 42 1006.4
20260504225015 13 340 27.4 0.0 0.00 0.00 0.00 42 1006.3
20260504224533 13 321 27.4 0.0 0.00 0.00 0.00 42 1006.2
20260504224054 13 331 25.7 0.0 0.00 0.00 0.00 43 1006.1
20260504223507 13 355 24.1 0.0 0.00 0.00 0.00 42 1006.0
20260504223025 13 351 22.5 0.0 0.00 0.00 0.00 43 1006.0
20260504222537 13 339 25.7 0.0 0.00 0.00 0.00 42 1006.2
20260504222052 13 355 24.1 0.0 0.00 0.00 0.00 43 1006.1
20260504221508 13 340 27.4 0.0 0.00 0.00 0.00 42 1006.2
20260504221025 13 326 25.7 0.0 0.00 0.00 0.00 41 1006.2
20260504220540 13 321 24.1 0.0 0.00 0.00 0.00 42 1006.2
20260504220104 13 323 24.1 0.0 0.00 0.00 0.00 41 1006.2
20260504215514 13 342 25.7 0.0 0.00 0.00 0.00 40 1006.3
20260504215031 13 329 24.1 0.0 0.00 0.00 0.00 42 1006.4
20260504214547 13 5 25.7 0.0 0.00 0.00 0.00 40 1006.3
20260504214005 13 321 25.7 0.0 0.00 0.00 0.00 43 1006.4
20260504213517 13 346 27.4 0.0 0.00 0.00 0.00 41 1006.5
20260504213034 13 344 27.4 0.0 0.00 0.00 0.00 40 1006.6
20260504212548 13 338 27.4 0.0 0.00 0.00 0.00 41 1006.6
20260504212107 13 329 25.7 0.0 0.00 0.00 0.00 41 1006.4
20260504211515 13 335 25.7 0.0 0.00 0.00 0.00 41 1006.6
20260504211033 13 336 25.7 0.0 0.00 0.00 0.00 41 1006.8
20260504210550 13 5 24.1 0.0 0.00 0.00 0.00 40 1006.8
20260504210106 14 331 24.1 0.0 0.00 0.00 0.00 41 1006.7
20260504205517 13 332 24.1 0.0 0.00 0.00 0.00 41 1006.8